Tracking 29892 objects as of 21-Nov-2024
HD Live streaming from Space Station
objects crossing your sky now

FENGYUN 1C DEB

Track FENGYUN 1C DEB now!
10-day predictions


NORAD ID: 31948
Int'l Code: 1999-025CMZ
Perigee: 798.8 km
Apogee: 837.2 km
Inclination: 99.4 °
Period: 101.1 minutes
Semi major axis: 7188 km
RCS: 0.0052 m2 (small)
Launch date: May 10, 1999
Source: People's Republic of China (PRC)
Launch site: Taiyaun Space Center, China (TSC)

Note: This is SATELLITE DEBRIS
Your satellite tracking list
Your tracking list is empty




NASA's NSSDC Master Catalog

Two Line Element Set (TLE):
1 31948U 99025CMZ 24323.84966183  .00004695  00000-0  20457-2 0  9993
2 31948  99.4219 349.6071 0026726  50.6548 123.1432 14.24304635894832
Source of the keplerian elements: AFSPC